Wind_Speed
9 9 9 10 10 11 11 10 10 9 9 8 8 8 8 9 10 9 5 4 7 5 4 4 3 3 2 1 3 6 5 5 6 7 9 11 11 11 10 13 16 16 14 16 15 17 15 17 16
8 8 8 8 8 9 8 8 7 7 8 8 7 7 6 7 7 7 8 6 6 9 8 7 6 7 7 6 6 4 5 6 6 7 7 8 10 12 14 15 14 16 16 18 16 18 19 19 18
6 7 7 8 8 7 6 6 6 7 6 6 6 5 6 6 8 7 6 6 5 6 10 11 10 10 10 9 8 8 8 8 7 6 8 10 10 12 14 15 17 17 17 20 19 19 19 19 17
8 8 8 9 8 8 7 7 6 7 9 9 7 5 7 7 7 7 6 5 5 4 6 10 12 13 13 12 12 12 11 10 10 10 10 10 10 11 12 14 15 15 15 18 17 18 18 19 19
10 10 11 12 11 11 11 10 10 11 11 12 13 12 8 8 8 8 8 8 7 6 5 6 8 11 14 16 15 14 14 15 15 13 12 13 13 13 13 13 14 15 17 17 16 16 16 17 17
13 13 13 14 15 16 16 15 14 14 14 15 16 18 17 14 12 13 12 11 10 10 9 7 7 8 9 12 16 18 18 18 18 18 17 17 16 16 16 16 16 16 16 16 16 15 16 17 17
15 14 14 15 17 19 19 19 20 21 20 19 20 21 22 20 18 16 16 16 15 13 12 11 11 11 11 11 12 14 17 20 20 20 21 21 21 20 19 20 20 21 21 21 20 20 20 19 19
17 16 15 16 18 20 20 21 21 22 23 23 22 23 25 22 23 22 20 20 19 19 18 16 15 14 13 12 13 12 14 16 19 21 22 23 23 24 24 24 24 24 24 24 24 24 22 21 21
17 16 16 18 18 20 18 21 19 22 22 25 22 25 25 24 24 24 24 23 23 23 22 23 22 21 19 17 16 15 15 16 16 16 18 20 22 25 27 28 29 29 29 29 27 26 26 25 25
18 18 22 21 22 21 22 21 21 21 22 23 24 25 24 23 23 23 25 25 25 26 27 28 26 26 26 25 23 21 19 19 19 19 19 19 20 21 23 26 29 31 32 33 33 31 30 29 29
21 24 27 25 26 26 26 26 25 25 22 27 28 26 25 21 20 21 24 25 27 28 30 31 31 29 28 29 30 29 27 25 24 24 24 23 22 23 23 25 26 27 29 32 34 35 35 34 33
30 30 29 29 29 29 30 29 30 29 24 31 29 29 27 26 26 26 26 28 27 28 28 29 30 29 29 30 33 33 32 32 31 31 30 29 28 27 27 28 27 27 29 30 30 32 35 37 38
31 28 28 29 28 31 33 31 35 26 34 33 32 31 31 31 30 31 31 30 29 28 28 30 30 30 29 29 30 31 33 35 36 35 35 35 34 33 34 33 32 31 30 30 31 32 33 34 36
32 31 30 29 31 34 33 28 33 31 34 33 34 34 34 35 35 36 34 29 30 29 29 31 30 33 33 31 29 29 30 32 34 35 36 38 38 38 38 38 38 36 35 34 33 33 34 34 35
36 36 34 32 34 38 40 29 33 35 35 33 33 34 36 37 38 40 37 34 33 31 31 32 34 37 37 36 34 33 31 31 31 32 33 36 38 39 40 42 41 40 40 39 38 37 35 35 36
40 42 38 35 36 45 47 34 32 35 38 33 34 34 36 37 40 41 39 36 37 36 34 34 34 37 39 39 38 36 35 33 31 31 31 32 34 35 38 39 41 42 42 42 42 41 39 38 38
45 48 45 41 37 47 51 44 34 36 39 33 31 36 35 37 41 39 38 39 39 38 35 33 34 36 38 39 39 37 35 33 33 32 31 32 35 37 39 40 41 41 42 43 44 44 43 42 40
48 50 51 51 39 46 49 54 45 39 38 33 31 33 36 35 35 39 39 38 40 38 37 35 34 32 34 35 36 37 37 36 37 37 35 37 39 42 43 42 42 42 42 42 42 44 46 46 44
50 53 54 52 52 52 47 51 48 45 34 35 36 37 37 38 37 37 38 37 35 35 33 34 32 33 35 37 39 41 41 40 40 41 40 41 42 43 46 45 44 44 43 43 44 45 45 46 46
52 56 57 57 56 56 54 49 46 50 44 40 38 39 40 38 38 38 37 38 39 39 39 37 37 41 37 33 36 36 39 42 43 42 42 42 44 45 47 48 47 48 50 49 49 48 48 49 49
52 54 55 56 55 55 58 57 54 49 47 45 45 43 40 43 43 41 40 41 43 40 38 37 35 36 36 32 30 33 36 38 38 40 43 44 48 51 53 55 54 52 53 53 53 51 50 49 49
51 51 53 56 56 57 57 59 50 50 51 52 47 46 48 45 47 48 47 44 42 42 42 39 37 39 41 43 45 44 43 43 44 44 43 45 46 48 51 55 57 56 56 55 55 55 53 52 49
51 50 48 49 52 54 52 57 57 55 57 58 56 52 52 50 44 40 42 39 36 34 38 40 48 53 52 54 52 51 51 52 50 49 50 50 49 50 52 54 55 54 53 55 56 55 55 56 53
50 51 53 54 55 59 58 59 62 60 63 63 63 59 55 52 53 50 47 48 42 44 42 49 55 59 55 54 55 57 58 55 53 53 54 56 55 55 55 56 58 58 55 55 56 57 59 60 59
50 53 57 61 62 63 60 65 65 64 65 65 64 63 62 62 59 59 58 58 56 56 60 66 65 66 62 61 63 63 63 65 63 60 58 58 59 60 62 61 61 61 61 60 61 61 62 65 64
59 59 59 62 64 68 67 72 69 68 69 71 72 70 69 69 69 68 69 67 66 68 70 70 69 70 70 69 67 67 70 68 69 67 65 66 64 65 68 69 68 69 69 66 66 66 64 64 66
62 59 60 61 61 62 68 69 63 69 69 68 69 70 72 72 72 73 71 69 68 67 68 69 70 70 69 68 68 62 61 64 68 69 70 72 69 69 71 74 74 75 74 74 71 67 64 66 66
59 57 56 52 51 55 63 66 70 61 65 64 64 65 65 68 69 69 70 72 69 66 68 69 69 69 70 70 68 70 68 68 71 73 77 80 70 74 78 75 75 79 81 78 74 73 71 65 66
57 58 57 58 61 66 68 66 62 60 60 60 62 65 68 66 68 70 70 67 71 71 72 72 72 71 68 68 66 69 74 74 78 80 80 80 74 76 82 76 73 74 75 80 82 79 74 72 66
59 57 53 52 60 61 61 60 51 56 63 68 68 68 66 68 66 66 68 71 74 78 76 74 73 71 70 71 71 69 70 77 82 85 83 83 77 79 78 79 78 75 74 75 78 78 78 77 72
Wind_Direction
63 65 60 60 58 49 46 47 46 36 33 36 34 27 24 22 20 8 335 260 244 237 232 195 196 210 243 242 199 205 206 214 223 232 229 220 214 209 215 214 201 209 212 217 222 224 224 221 224
49 48 42 39 42 40 39 30 30 29 17 19 18 21 22 4 11 19 13 344 263 242 240 246 229 228 222 228 236 233 209 214 218 235 236 237 229 216 210 209 215 214 223 225 225 232 235 237 235
19 16 10 14 12 14 11 9 3 1 1 353 353 5 359 3 359 357 1 359 346 275 250 242 245 243 241 233 229 237 243 241 236 229 232 234 239 236 228 222 219 218 214 226 225 233 237 238 239
342 336 332 333 334 328 323 321 322 322 315 310 310 326 328 341 343 336 334 331 329 323 286 262 249 245 245 248 243 238 237 243 243 246 243 240 235 242 234 229 229 227 225 224 227 226 230 230 227
323 320 317 310 309 306 303 302 307 301 299 302 307 306 303 308 310 313 322 319 311 307 298 287 272 256 248 248 247 247 245 241 244 247 247 246 241 236 239 241 241 234 230 229 231 236 235 235 232
305 305 303 303 302 300 295 294 292 291 291 294 297 295 296 293 293 295 296 297 298 297 289 282 283 280 268 258 252 247 247 245 243 247 248 249 249 244 242 242 242 241 236 233 234 237 241 241 237
298 302 298 302 303 301 297 294 292 291 290 288 287 286 286 287 289 284 287 288 287 287 288 287 279 273 272 275 271 261 254 250 247 245 247 251 251 248 247 245 243 242 239 237 238 244 248 251 248
298 303 304 309 307 300 301 299 295 291 291 289 287 285 281 285 284 285 282 283 280 278 281 280 280 276 272 272 270 272 268 261 254 250 248 248 252 255 254 251 246 244 244 246 246 247 249 246 245
296 301 302 297 298 298 302 298 297 293 288 288 287 288 290 289 287 285 283 279 276 276 273 274 274 274 272 268 267 268 266 268 268 265 263 258 255 254 254 253 253 251 249 247 248 251 250 248 246
293 298 294 296 294 290 294 293 292 292 288 284 288 291 295 295 292 290 287 283 278 275 274 272 270 269 270 272 270 267 267 269 267 266 266 266 265 265 264 262 258 254 253 253 252 250 252 253 253
291 297 293 291 288 288 286 284 285 285 291 283 285 292 296 297 296 289 287 283 280 274 271 269 271 270 268 267 267 269 268 268 269 270 270 269 268 268 268 268 267 266 263 258 256 255 254 253 254
288 291 290 291 287 286 282 283 280 286 290 281 289 292 293 294 296 292 289 288 284 281 280 273 269 269 271 270 267 265 267 268 268 267 267 269 271 271 271 269 269 268 265 265 265 261 258 257 257
291 293 293 290 291 285 281 285 287 291 279 283 286 289 294 297 293 287 284 284 285 284 280 277 271 272 275 278 276 271 267 269 271 270 269 269 269 269 269 269 268 267 267 266 266 265 263 261 261
291 290 291 292 290 286 285 288 287 283 280 283 286 288 289 288 285 284 281 276 278 282 281 279 279 275 273 275 277 275 273 272 272 271 270 270 269 268 267 268 268 268 268 267 266 267 266 266 266
290 287 290 291 295 294 289 286 285 283 286 288 288 284 279 279 281 278 282 284 282 279 278 273 267 270 273 273 273 272 271 271 272 272 268 267 267 267 268 268 268 266 267 267 266 267 267 266 265
289 288 285 287 294 294 291 289 285 289 286 289 284 278 277 276 275 281 282 282 281 283 280 276 274 271 269 271 269 267 266 265 266 268 268 267 266 266 267 268 268 267 266 265 265 265 266 267 268
289 287 287 287 293 288 287 294 287 284 286 290 282 278 276 276 276 276 277 280 281 285 283 280 280 278 275 274 273 270 267 263 261 260 261 261 263 264 265 267 267 267 266 266 267 266 265 265 267
286 287 289 290 287 283 286 295 296 287 284 288 283 281 276 273 275 278 279 279 281 280 281 279 277 276 278 277 276 273 266 262 259 256 255 256 258 262 263 263 265 265 263 262 264 265 264 266 265
281 283 284 287 287 284 283 286 291 293 291 284 284 278 276 276 274 275 279 284 282 279 278 275 269 274 274 273 273 274 274 268 260 257 254 254 257 260 263 264 263 262 261 260 259 262 266 266 265
280 281 283 283 284 285 286 282 284 287 292 289 280 278 280 279 278 278 279 282 282 282 280 280 276 280 275 268 271 271 271 275 272 270 265 257 254 255 260 262 260 260 260 258 259 262 264 266 269
273 276 279 283 285 284 285 286 287 289 289 288 288 287 279 277 276 278 281 283 282 278 276 275 268 265 267 267 258 265 274 273 277 278 277 272 268 264 262 263 263 260 261 262 262 263 264 266 268
274 274 279 280 281 284 286 287 292 294 295 290 295 294 296 295 294 292 285 285 285 279 274 270 269 273 274 274 270 265 265 267 271 271 272 272 272 272 271 272 269 267 266 263 263 262 262 263 264
274 279 280 281 281 282 284 291 297 297 293 293 299 303 302 301 300 295 293 290 277 268 271 262 271 281 282 280 275 272 268 270 270 270 272 271 269 270 273 271 271 269 266 265 264 264 262 262 260
279 280 280 280 281 279 288 291 290 294 294 296 297 298 296 296 295 292 286 283 271 264 262 264 267 277 278 277 273 273 273 271 266 265 264 265 266 265 262 264 267 268 266 268 268 266 264 263 262
281 283 284 282 284 285 289 285 286 288 292 292 291 291 291 289 287 287 283 280 277 267 266 274 276 274 273 269 269 270 270 271 269 266 262 261 259 258 258 260 261 262 265 264 264 264 265 267 264
284 284 283 285 285 283 282 283 287 288 288 288 288 287 286 287 285 282 279 279 276 275 274 273 272 272 274 274 270 265 264 264 266 264 260 259 259 259 258 258 258 259 260 261 263 263 263 263 265
285 284 284 284 283 280 280 281 278 286 285 284 282 281 282 282 282 281 282 280 279 277 276 276 276 274 271 268 270 263 257 254 252 256 259 256 257 260 260 258 258 259 260 261 260 260 263 263 261
283 282 281 280 269 269 274 277 284 285 281 281 281 280 278 278 278 277 278 278 275 276 277 276 272 269 268 268 266 264 257 255 253 253 255 255 252 258 262 259 257 257 257 260 262 261 260 259 260
278 279 280 277 274 275 278 282 289 283 283 285 284 284 283 280 280 277 273 271 272 277 276 274 274 273 270 267 263 259 251 252 252 252 254 255 257 257 258 259 260 259 260 258 260 261 260 258 258
282 284 281 274 281 284 280 277 282 277 279 279 280 281 279 284 278 271 269 267 269 279 279 274 272 272 272 269 265 263 261 253 252 255 256 256 255 256 258 258 258 259 259 259 260 257 258 259 257
Height
5869 5869 5868 5867 5869 5866 5864 5864 5863 5862 5860 5858 5857 5856 5856 5854 5854 5854 5851 5851 5850 5850 5850 5849 5849 5849 5849 5848 5848 5847 5847 5848 5848 5848 5849 5850 5851 5852 5852 5852 5853 5855 5857 5857 5858 5859 5859 5861 5862
5870 5869 5868 5868 5868 5866 5866 5864 5863 5862 5860 5859 5857 5856 5855 5854 5853 5852 5851 5850 5850 5849 5849 5849 5849 5848 5849 5849 5848 5848 5848 5848 5848 5849 5849 5849 5849 5850 5851 5852 5853 5854 5855 5857 5857 5859 5859 5860 5861
5871 5869 5869 5868 5867 5866 5865 5864 5863 5862 5860 5858 5857 5856 5855 5854 5853 5852 5851 5850 5849 5848 5848 5848 5848 5848 5848 5847 5848 5848 5848 5848 5848 5848 5849 5849 5849 5850 5850 5851 5852 5854 5853 5856 5856 5858 5859 5859 5860
5870 5870 5869 5868 5866 5866 5864 5863 5863 5861 5859 5857 5856 5856 5855 5854 5853 5852 5851 5850 5849 5848 5847 5847 5846 5846 5847 5847 5846 5847 5847 5847 5847 5847 5848 5848 5848 5849 5850 5851 5852 5853 5853 5855 5855 5856 5857 5858 5858
5870 5869 5868 5867 5865 5864 5863 5862 5861 5860 5859 5857 5856 5855 5854 5853 5852 5851 5850 5849 5849 5848 5847 5846 5845 5845 5845 5845 5845 5846 5846 5846 5846 5846 5847 5847 5848 5848 5848 5849 5850 5852 5853 5853 5854 5855 5856 5857 5858
5869 5867 5867 5865 5864 5863 5861 5860 5858 5857 5856 5855 5855 5853 5852 5851 5851 5849 5849 5848 5847 5846 5846 5845 5845 5844 5844 5844 5844 5844 5844 5844 5844 5844 5844 5845 5845 5846 5846 5847 5848 5849 5850 5852 5853 5854 5856 5856 5856
5867 5866 5865 5864 5862 5860 5859 5858 5856 5855 5854 5853 5852 5850 5849 5848 5847 5847 5846 5846 5845 5844 5843 5843 5843 5842 5842 5842 5842 5842 5842 5842 5842 5842 5842 5843 5844 5844 5845 5845 5846 5847 5849 5850 5850 5851 5852 5853 5853
5864 5864 5863 5862 5861 5858 5856 5855 5853 5852 5851 5849 5848 5847 5844 5845 5843 5843 5843 5843 5842 5842 5841 5840 5840 5840 5839 5839 5839 5840 5839 5839 5839 5839 5840 5840 5841 5841 5842 5843 5844 5845 5845 5846 5847 5848 5848 5849 5850
5861 5861 5860 5859 5858 5855 5853 5852 5851 5849 5847 5845 5845 5843 5841 5841 5840 5839 5839 5839 5838 5838 5838 5837 5836 5835 5835 5835 5835 5836 5836 5837 5837 5837 5837 5838 5838 5838 5838 5839 5840 5841 5842 5842 5843 5843 5844 5845 5846
5857 5857 5855 5855 5853 5852 5849 5848 5847 5846 5844 5842 5840 5838 5838 5836 5835 5835 5834 5833 5832 5832 5832 5831 5831 5831 5831 5831 5832 5832 5832 5832 5833 5833 5833 5834 5834 5834 5835 5835 5835 5836 5837 5838 5839 5839 5839 5840 5841
5853 5852 5849 5849 5847 5847 5845 5843 5842 5841 5842 5837 5836 5836 5834 5833 5832 5831 5828 5827 5826 5825 5825 5825 5826 5826 5826 5826 5826 5827 5828 5828 5828 5829 5829 5829 5830 5830 5830 5830 5830 5831 5831 5832 5833 5833 5834 5835 5836
5848 5846 5844 5843 5841 5839 5838 5838 5837 5837 5838 5830 5831 5831 5830 5829 5828 5826 5824 5821 5820 5819 5820 5820 5820 5820 5820 5820 5821 5821 5821 5822 5823 5823 5823 5823 5824 5824 5824 5825 5825 5825 5825 5826 5826 5827 5827 5828 5829
5841 5841 5839 5836 5834 5831 5830 5832 5827 5834 5827 5827 5826 5826 5825 5823 5821 5817 5816 5815 5815 5815 5814 5814 5815 5815 5815 5816 5815 5815 5815 5815 5815 5816 5817 5817 5817 5818 5817 5818 5818 5819 5819 5819 5819 5820 5821 5822 5823
5834 5833 5832 5830 5827 5823 5823 5827 5821 5822 5821 5823 5821 5820 5818 5814 5811 5808 5807 5809 5808 5809 5808 5807 5807 5806 5807 5809 5809 5808 5808 5808 5808 5809 5810 5809 5810 5810 5810 5810 5811 5812 5812 5813 5812 5813 5813 5814 5815
5826 5824 5824 5823 5820 5815 5812 5822 5817 5814 5813 5815 5815 5813 5809 5806 5803 5799 5801 5802 5801 5802 5801 5801 5800 5798 5798 5799 5800 5801 5801 5801 5801 5800 5801 5801 5801 5802 5802 5802 5802 5803 5803 5805 5805 5805 5805 5806 5806
5818 5814 5815 5818 5815 5804 5800 5811 5812 5807 5804 5808 5806 5803 5800 5800 5795 5793 5793 5794 5792 5793 5793 5793 5792 5791 5790 5788 5789 5790 5792 5793 5794 5793 5793 5794 5793 5793 5793 5793 5794 5795 5795 5795 5796 5797 5797 5797 5798
5809 5804 5805 5806 5808 5795 5788 5793 5805 5801 5795 5798 5796 5793 5793 5790 5786 5785 5785 5785 5784 5784 5785 5785 5785 5785 5782 5780 5779 5781 5781 5783 5783 5783 5784 5785 5784 5783 5784 5784 5784 5785 5786 5787 5788 5789 5788 5789 5789
5798 5795 5792 5792 5800 5789 5783 5777 5786 5791 5789 5787 5786 5784 5783 5781 5781 5779 5777 5776 5775 5775 5776 5777 5776 5776 5775 5773 5772 5771 5771 5772 5773 5773 5774 5773 5773 5773 5773 5773 5773 5774 5775 5776 5777 5777 5777 5779 5780
5789 5785 5783 5785 5782 5779 5782 5773 5772 5773 5783 5779 5777 5774 5773 5773 5772 5771 5769 5767 5767 5767 5767 5765 5766 5768 5767 5766 5764 5763 5762 5762 5761 5761 5762 5763 5763 5763 5762 5763 5764 5764 5764 5764 5764 5764 5766 5768 5769
5778 5774 5773 5771 5770 5770 5766 5767 5769 5763 5766 5770 5768 5766 5766 5765 5765 5764 5762 5761 5758 5758 5759 5759 5758 5756 5756 5756 5757 5756 5754 5755 5753 5753 5753 5753 5751 5752 5751 5751 5752 5753 5753 5752 5753 5754 5754 5755 5758
5767 5765 5763 5761 5759 5759 5753 5753 5752 5757 5755 5754 5755 5757 5757 5757 5756 5755 5754 5752 5751 5749 5747 5746 5748 5748 5748 5746 5745 5746 5748 5747 5746 5744 5743 5745 5743 5744 5742 5740 5740 5742 5742 5744 5743 5743 5744 5743 5744
5759 5757 5755 5753 5749 5745 5742 5738 5745 5743 5739 5735 5739 5741 5740 5740 5742 5742 5741 5739 5739 5739 5739 5736 5736 5736 5738 5738 5737 5736 5734 5734 5736 5736 5734 5732 5732 5731 5731 5731 5730 5731 5731 5731 5732 5731 5731 5730 5732
5748 5747 5746 5745 5741 5737 5737 5730 5734 5733 5729 5727 5727 5726 5726 5727 5727 5728 5728 5729 5728 5727 5726 5725 5724 5724 5724 5723 5723 5723 5723 5722 5721 5720 5721 5722 5720 5718 5717 5718 5717 5718 5718 5717 5719 5719 5720 5718 5718
5739 5736 5734 5730 5729 5728 5731 5726 5728 5721 5715 5716 5717 5715 5716 5715 5714 5714 5714 5714 5716 5716 5715 5714 5712 5709 5709 5708 5707 5706 5706 5704 5704 5704 5703 5703 5704 5704 5701 5702 5702 5703 5705 5704 5704 5706 5706 5706 5706
5726 5725 5720 5717 5716 5718 5718 5713 5718 5711 5712 5707 5705 5703 5703 5703 5702 5700 5699 5699 5699 5699 5698 5696 5694 5693 5693 5693 5693 5691 5688 5688 5686 5685 5685 5685 5686 5686 5686 5685 5685 5686 5688 5689 5689 5690 5691 5693 5695
5712 5712 5707 5700 5704 5703 5704 5701 5705 5700 5698 5693 5692 5690 5686 5685 5684 5684 5683 5683 5682 5681 5679 5677 5677 5675 5673 5672 5673 5674 5673 5670 5668 5667 5666 5666 5667 5668 5668 5669 5667 5668 5670 5671 5671 5673 5674 5675 5678
5699 5698 5694 5685 5688 5681 5690 5689 5693 5687 5681 5681 5677 5675 5674 5670 5666 5663 5661 5661 5661 5660 5659 5658 5657 5656 5655 5653 5652 5652 5651 5650 5648 5647 5646 5645 5646 5646 5647 5649 5651 5649 5650 5652 5653 5654 5656 5658 5660
5684 5683 5680 5677 5669 5665 5671 5673 5674 5677 5661 5663 5661 5659 5657 5652 5651 5646 5643 5640 5640 5639 5637 5636 5636 5634 5634 5633 5632 5632 5631 5631 5630 5629 5626 5626 5623 5627 5626 5626 5629 5629 5630 5631 5632 5636 5637 5638 5641
5668 5665 5665 5661 5657 5648 5647 5652 5663 5652 5649 5645 5641 5637 5634 5631 5630 5628 5624 5620 5618 5618 5617 5615 5613 5613 5612 5610 5610 5610 5610 5610 5608 5608 5607 5605 5604 5605 5608 5606 5607 5608 5609 5610 5612 5614 5616 5619 5621
5651 5651 5650 5643 5637 5634 5628 5626 5646 5638 5635 5629 5625 5621 5616 5614 5610 5606 5604 5602 5599 5597 5596 5594 5594 5593 5591 5589 5587 5587 5587 5587 5587 5586 5584 5584 5583 5584 5583 5585 5586 5586 5587 5588 5591 5592 5594 5597 5600